Regional Weather Roundup
Issued by NWS

Home | Current Version | Previous Version | Text Only | Print | Product List | Glossary Off
Versions: 1 2 3 4 5 6 7 8 9 10 11 12 13 14 15 16 17 18 19 20 21 22 23 24 25 26 27 28 29 30 31 32 33 34 35 36 37 38 39 40 41 42 43 44 45 46 47 48 49 50

000
ASUS45 KPSR 250310
RWRAZ

ARIZONA HOURLY REGIONAL WEATHER ROUNDUP
NATIONAL WEATHER SERVICE PHOENIX AZ
800 PM MST SUN MAY 24 2015

NOTE: FAIR INDICATES FEW OR NO CLOUDS BELOW 12,000 FEET WITH NO
SIGNIFICANT WEATHER AND/OR OBSTRUCTIONS TO VISIBILITY.

AZZ001>003-036-250400-
NORTHWEST ARIZONA

CITY           SKY/WX    TMP DP  RH WIND       PRES   REMARKS
BULLHEAD CITY  MOCLDY    86  41  20 S16       29.75S
KINGMAN        MOCLDY    70  36  28 SW8       29.90R
$$

AZZ004>008-015-016-018-250400-
NORTH CENTRAL ARIZONA

CITY           SKY/WX    TMP DP  RH WIND       PRES   REMARKS
GRAND CANYON   MOCLDY    47  46  97 CALM      30.03S
WILLIAMS       CLOUDY    52  41  66 CALM      30.11R
PRESCOTT       CLOUDY    62  33  33 SW7       29.99R
FLAGSTAFF      MOCLDY    46  43  89 SW6       30.06R
PAYSON         CLOUDY    59  39  47 E6        30.02R
PAGE           MOCLDY    63  49  60 N5        29.89R
$$

AZZ009>014-017-250400-
NORTHEAST ARIZONA

CITY           SKY/WX    TMP DP  RH WIND       PRES   REMARKS
WINSLOW        CLOUDY    56  43  61 S15       29.98S
SAINT JOHNS    CLOUDY    53  40  61 W6        30.02R
WINDOW ROCK    MOCLDY    48  39  71 SW8       30.02R
SHOW LOW       MOCLDY    50  34  53 SW7       30.07R
$$

AZZ023-250400-
GREATER PHOENIX AREA

CITY           SKY/WX    TMP DP  RH WIND       PRES   REMARKS
PHOENIX        PTCLDY    82  34  17 W10       29.81R
BUCKEYE          N/A     75  39  27 SW5       29.82S
LUKE AFB       CLEAR     80  40  24 SW6       29.80R
DEER VALLEY    CLEAR     78  32  18 SW7       29.82R
SCOTTSDALE     CLEAR     78  34  20 SW3       29.84R
MESA-FALCON    PTCLDY    77  37  24 W6        29.83R
MESA-GATEWAY   PTCLDY    77  39  25 NW7       29.85R
CHANDLER       CLEAR     79  36  21 W7        29.83R
$$

AZZ027-028-250400-
SOUTHWEST MARICOPA COUNTY AND PINAL COUNTY

CITY           SKY/WX    TMP DP  RH WIND       PRES   REMARKS
CASA GRANDE    CLEAR     77  37  24 NW6       29.82S
GILA BEND      FAIR      80  41  25 NW5       29.80R
$$

AZZ503-504-507>509-250400-
SOUTHEAST ARIZONA

CITY           SKY/WX    TMP DP  RH WIND       PRES   REMARKS
TUCSON         CLEAR     75  31  19 W7        29.90R
DAVIS-MONTHAN  CLEAR     74  34  22 NW6       29.88R
RYAN FIELD       N/A     77  36  22 NW6       29.89R
NOGALES        CLEAR     65  29  25 CALM      29.96R
SIERRA VISTA   PTCLDY    58  45  60 S10       30.01R
DOUGLAS        MOCLDY    65  30  27 NW17      29.96R
SAFFORD        PTCLDY    73  31  21 NW16      29.87R
$$

AZZ020-021-025-026-031-250400-
SOUTHWEST ARIZONA

CITY           SKY/WX    TMP DP  RH WIND       PRES   REMARKS
YUMA           CLEAR     82  43  25 S6        29.80R
$$

CAZ031-033-041-043-047-048-061-250400-
SOUTHERN CALIFORNIA

CITY           SKY/WX    TMP DP  RH WIND       PRES   REMARKS
DOWNTOWN L.A.  CLEAR     64  51  62 VRB3      29.94R
L.A. AIRPORT   CLEAR     61  53  75 W8        29.96R
SAN DIEGO      PTCLDY    64  54  69 NW7       29.96S
BURBANK        CLEAR     65  48  54 SW7       29.94R
ONTARIO        PTCLDY    65  51  60 W5        29.94S
RIVERSIDE      CLEAR     66  52  60 W6        29.94S
PALM SPRINGS   CLEAR     77  49  37 NW14      29.81R
EL CENTRO NAS  CLEAR     82  43  25 VRB6      29.80R
IMPERIAL       CLEAR     83  44  25 SW5       29.77R
BLYTHE         CLEAR     83  40  21 S7        29.78R
NEEDLES        PTCLDY    85  39  19 SW13      29.77R
$$

NVZ020-UTZ003-250400-
SOUTHERN NEVADA-UTAH

CITY           SKY/WX    TMP DP  RH WIND       PRES   REMARKS
LAS VEGAS      MOCLDY    80  42  25 S12       29.76R
SALT LAKE CITY MOCLDY    62  42  47 NW9       29.89R
$$

NMZ009-TXZ055-250400-
NEW MEXICO-WEST TEXAS

CITY           SKY/WX    TMP DP  RH WIND       PRES   REMARKS
ALBUQUERQUE    CLOUDY    53  44  71 SE15      29.96S
EL PASO        PTCLDY    78  16   9 W14       29.84R
$$


........................KEY........................
SKY/WX - SKY CONDITION/WEATHER
TMP    - TEMPERATURE IN FAHRENHEIT
DP     - DEW POINT IN FAHRENHEIT
RH     - RELATIVE HUMIDITY IN PERCENT
WIND   - DIRECTION AND SPEED IN MILES PER HOUR (MPH)
VRB    - VARIABLE WIND DIRECTION
PRES   - MEAN SEA LEVEL PRESSURE IN INCHES OF MERCURY
         F - FALLING PRESSURE   R - RISING PRESSURE
         S - STEADY PRESSURE
VSB    - VISIBILITY IN MILES
HX     - HEAT INDEX IN FAHRENHEIT
WCI    - WIND CHILL INDEX IN FAHRENHEIT
TC     - TEMPERATURE IN CELSIUS WHICH IS ALSO KNOWN AS
         TEMPERATURE IN CENTIGRADE
AFB    - AIR FORCE BASE
         LUKE AFB IS LUKE AIR FORCE BASE
         DAVIS-MONTHAN IS DAVIS-MONTHAN AIR FORCE BASE
NAS    - NAVAL AIR STATION
         EL CENTRO NAS IS EL CENTRO NAVAL AIR STATION
N/A    - NOT AVAILABLE




USA.gov is the U.S. government's official web portal to all federal, state and local government web resources and services.